Starlink 35751

operational
NORAD ID: 66208 Int'l Des: 2025-244 Owner: SPXS Country: US Constellation: starlink
LEOCIRCULAR

Starlink 35751について

説明を読み込み中...

リアルタイム位置

3D地球を読み込み中...

次回通過

高度履歴

Altitude vs Time

uPlot chart will show altitude changes over time

軌道要素

1 66208U 25244C 25350.05160747 .00097586 00000-0 24172-2 0 9997
2 66208 53.1611 260.5714 0001625 76.4999 283.6187 15.39636169 8826
Epoch: Dec 16, 2025 • Age: 23 hours

現在のステータス

高度 455.5 km
速度 7.64 km/s
衛星直下点 -27.30°S, 13.19°E
打ち上げ日 Oct 28, 2025
運用期間 0.1 years
タイプ internet

技術仕様

分類 Payload
質量 575.00 kg
乾燥質量 530.00 kg
総質量 575.00 kg
長さ 0.30 m
直径 4.10 m
スパン 29.00 m
形状 Box + pan
製造者 SPXS
バスタイプ Starlink V2MO
フェーズステータス In Orbit
所有者/国 SPXS/US

大規模コンステレーション

Loading constellations...